Location: Acequia del Cap
(41.7000°N, 0.6167°E)
Time: 23:52:21
(UTC+00:00)

Cosmos 1470 - Pass Details

Date: 07 August 2020
Orbit: 520 x 543 km, 82.5° (Epoch: 22 September)

Event Time Altitude Azimuth Distance (km) Brightness Sun altitude
Exits shadow 02:41:44 62° 160° (SSE) 610 2.8 -21.4°
Maximum altitude 02:42:18 77° 96° (E) 558 2.8 -21.4°
Drops below altitude 10° 02:46:17 10° 11° (N) 1,813 6.3 -20.9°
Sets 02:48:27 0° 10° (N) 2,712 7.3 -20.6°
